Total_Precipitation_Accumulation
0.99 1.09 1.06 1.03 0.98 1.04 1.00 0.86 0.74 0.79 0.77 0.65 0.53 0.47 0.46 0.51 0.49 0.54 0.65 0.62 0.67 0.83 1.05 1.12 1.15 1.04 0.99 0.99 0.97 0.87 0.75 0.67 0.61 0.54 0.45 0.40 0.38 0.38 0.38 0.40 0.40 0.37 0.37
1.35 1.39 1.44 1.40 1.28 1.29 1.29 1.18 1.09 1.08 1.00 0.92 0.83 0.71 0.61 0.71 0.72 0.71 0.83 0.84 0.83 0.91 1.13 1.37 1.46 1.37 1.27 1.24 1.13 1.02 0.94 0.86 0.80 0.75 0.69 0.59 0.51 0.48 0.48 0.47 0.47 0.44 0.40
1.78 1.78 1.80 1.70 1.61 1.60 1.65 1.58 1.47 1.38 1.19 1.06 1.00 0.95 0.89 0.85 0.90 0.92 1.13 1.35 1.26 1.20 1.25 1.31 1.38 1.43 1.46 1.49 1.43 1.29 1.22 1.09 0.99 0.95 0.91 0.83 0.74 0.65 0.60 0.57 0.56 0.52 0.47
2.03 2.14 2.17 2.06 1.93 1.84 1.96 2.00 1.86 1.73 1.57 1.48 1.42 1.33 1.18 1.15 1.20 1.33 1.44 1.60 1.71 1.59 1.54 1.38 1.26 1.30 1.45 1.57 1.57 1.50 1.35 1.18 1.11 1.09 1.08 1.04 0.93 0.84 0.76 0.73 0.72 0.67 0.60
2.53 2.53 2.49 2.48 2.41 2.40 2.39 2.22 2.16 2.02 2.00 1.91 1.63 1.54 1.39 1.36 1.43 1.46 1.56 1.62 1.70 1.69 1.63 1.45 1.30 1.26 1.35 1.56 1.62 1.64 1.56 1.45 1.35 1.24 1.15 1.14 1.11 1.02 0.88 0.81 0.78 0.74 0.69
3.04 3.09 3.03 2.95 2.89 2.83 2.65 2.55 2.46 2.28 2.13 2.00 1.70 1.56 1.45 1.41 1.40 1.44 1.46 1.41 1.38 1.34 1.32 1.33 1.39 1.29 1.29 1.35 1.36 1.47 1.57 1.57 1.44 1.34 1.27 1.24 1.18 1.06 0.92 0.85 0.80 0.79 0.78
3.72 3.70 3.56 3.31 3.15 3.11 2.99 2.90 2.69 2.48 2.23 2.05 1.97 1.72 1.42 1.29 1.27 1.20 1.18 1.18 1.18 1.17 1.19 1.20 1.21 1.19 1.18 1.24 1.22 1.27 1.36 1.41 1.40 1.41 1.41 1.33 1.24 1.13 1.02 0.95 0.90 0.86 0.82
4.04 4.00 3.97 3.88 3.63 3.42 3.21 2.96 2.82 2.66 2.29 2.06 2.01 1.93 1.64 1.39 1.14 0.96 0.91 0.92 0.95 1.02 1.05 1.03 1.02 1.08 1.11 1.18 1.25 1.34 1.34 1.33 1.37 1.38 1.37 1.34 1.30 1.25 1.19 1.14 1.07 1.02 0.95
4.39 4.24 4.07 3.81 3.61 3.45 3.31 3.09 2.84 2.69 2.40 2.15 2.01 2.02 1.85 1.60 1.29 1.06 0.90 0.84 0.82 0.85 0.89 0.89 0.90 0.94 0.97 1.05 1.12 1.27 1.33 1.29 1.31 1.28 1.28 1.28 1.28 1.25 1.23 1.20 1.17 1.17 1.14
4.08 3.81 3.65 3.52 3.32 3.02 2.78 2.65 2.51 2.27 2.10 1.96 1.88 1.73 1.60 1.45 1.43 1.36 1.22 1.07 0.99 0.99 0.98 0.91 0.90 0.95 0.96 1.02 1.20 1.31 1.30 1.28 1.36 1.32 1.25 1.22 1.22 1.25 1.26 1.27 1.27 1.27 1.27
3.51 3.23 3.07 2.88 2.63 2.29 1.95 1.85 1.87 1.89 1.82 1.72 1.69 1.65 1.59 1.47 1.37 1.36 1.36 1.27 1.21 1.17 1.14 1.14 1.12 1.10 1.07 1.06 1.13 1.30 1.27 1.15 1.21 1.25 1.27 1.26 1.24 1.21 1.20 1.21 1.20 1.17 1.17
2.91 2.55 2.24 1.94 1.71 1.56 1.37 1.31 1.33 1.39 1.51 1.55 1.58 1.58 1.53 1.49 1.45 1.43 1.41 1.39 1.36 1.28 1.19 1.16 1.15 1.13 1.11 1.10 1.13 1.25 1.06 0.98 0.96 0.97 1.01 1.01 1.00 0.97 0.96 1.00 1.05 1.08 1.11
2.20 1.91 1.61 1.42 1.29 1.21 1.14 1.07 1.03 1.05 1.15 1.26 1.34 1.40 1.45 1.46 1.42 1.45 1.55 1.60 1.50 1.40 1.29 1.23 1.16 1.12 1.13 1.12 1.14 1.19 1.04 0.95 0.86 0.79 0.76 0.75 0.73 0.74 0.76 0.79 0.80 0.81 0.83
1.61 1.35 1.14 0.97 0.88 0.86 0.86 0.84 0.85 0.88 0.92 0.99 1.10 1.19 1.27 1.30 1.29 1.29 1.33 1.39 1.50 1.49 1.33 1.23 1.14 1.05 0.99 0.91 0.94 0.92 0.83 0.86 0.77 0.70 0.65 0.61 0.57 0.53 0.50 0.47 0.47 0.46 0.46
1.01 0.86 0.74 0.67 0.63 0.61 0.60 0.58 0.60 0.66 0.73 0.79 0.84 0.91 1.00 1.05 1.07 1.09 1.13 1.17 1.25 1.32 1.25 1.09 1.02 0.94 0.79 0.70 0.73 0.59 0.57 0.62 0.56 0.50 0.48 0.45 0.42 0.39 0.36 0.34 0.33 0.33 0.33
0.68 0.61 0.53 0.47 0.44 0.42 0.39 0.37 0.39 0.42 0.46 0.54 0.61 0.67 0.76 0.83 0.90 0.93 0.98 1.01 1.00 1.03 1.05 0.93 0.82 0.75 0.66 0.56 0.57 0.45 0.44 0.46 0.41 0.39 0.38 0.37 0.36 0.36 0.34 0.31 0.30 0.30 0.30
0.45 0.40 0.34 0.32 0.30 0.28 0.28 0.30 0.34 0.38 0.41 0.43 0.46 0.49 0.54 0.58 0.66 0.69 0.69 0.70 0.74 0.75 0.79 0.76 0.68 0.60 0.55 0.52 0.50 0.45 0.41 0.39 0.36 0.38 0.36 0.35 0.34 0.32 0.31 0.30 0.29 0.30 0.31
0.33 0.28 0.24 0.24 0.24 0.25 0.24 0.24 0.27 0.33 0.38 0.38 0.36 0.38 0.40 0.42 0.48 0.51 0.53 0.55 0.59 0.63 0.67 0.71 0.68 0.62 0.56 0.52 0.49 0.47 0.35 0.29 0.29 0.32 0.30 0.27 0.27 0.27 0.25 0.24 0.23 0.23 0.22
0.30 0.26 0.23 0.22 0.21 0.20 0.20 0.20 0.21 0.26 0.33 0.35 0.33 0.32 0.32 0.33 0.35 0.34 0.38 0.43 0.47 0.54 0.64 0.67 0.63 0.57 0.51 0.44 0.45 0.38 0.33 0.38 0.27 0.23 0.21 0.19 0.18 0.17 0.16 0.14 0.14 0.13 0.12
0.21 0.20 0.19 0.18 0.17 0.15 0.15 0.16 0.17 0.21 0.25 0.28 0.26 0.25 0.25 0.25 0.26 0.30 0.31 0.37 0.43 0.55 0.62 0.62 0.54 0.47 0.43 0.39 0.45 0.43 0.39 0.39 0.32 0.21 0.19 0.15 0.14 0.13 0.13 0.13 0.12 0.10 0.08
0.19 0.15 0.12 0.12 0.09 0.08 0.08 0.08 0.11 0.14 0.19 0.21 0.21 0.20 0.19 0.18 0.19 0.22 0.25 0.32 0.41 0.52 0.55 0.55 0.51 0.46 0.41 0.43 0.43 0.41 0.43 0.38 0.31 0.24 0.25 0.22 0.24 0.29 0.32 0.26 0.19 0.15 0.09
0.14 0.11 0.10 0.09 0.08 0.06 0.05 0.05 0.07 0.10 0.13 0.17 0.20 0.19 0.16 0.14 0.14 0.16 0.21 0.27 0.35 0.42 0.47 0.50 0.48 0.47 0.44 0.45 0.48 0.47 0.50 0.48 0.44 0.31 0.33 0.28 0.24 0.35 0.41 0.37 0.29 0.19 0.11
0.16 0.14 0.13 0.11 0.11 0.07 0.03 0.03 0.04 0.09 0.13 0.17 0.19 0.20 0.17 0.15 0.18 0.20 0.19 0.19 0.22 0.23 0.32 0.46 0.53 0.52 0.53 0.56 0.63 0.61 0.58 0.58 0.54 0.42 0.49 0.47 0.36 0.42 0.34 0.32 0.35 0.28 0.21
0.18 0.18 0.16 0.14 0.13 0.07 0.03 0.02 0.03 0.08 0.13 0.14 0.15 0.18 0.23 0.24 0.20 0.18 0.16 0.19 0.25 0.28 0.32 0.40 0.54 0.56 0.53 0.55 0.62 0.65 0.63 0.62 0.59 0.55 0.60 0.62 0.44 0.43 0.37 0.54 0.55 0.47 0.36
0.20 0.20 0.19 0.19 0.18 0.11 0.03 0.01 0.02 0.08 0.12 0.10 0.10 0.10 0.12 0.15 0.14 0.15 0.19 0.28 0.32 0.36 0.30 0.39 0.50 0.54 0.55 0.57 0.58 0.61 0.70 0.77 0.73 0.62 0.57 0.62 0.55 0.47 0.49 0.70 0.67 0.67 0.55
0.20 0.18 0.20 0.24 0.21 0.14 0.04 0.02 0.02 0.07 0.12 0.12 0.13 0.15 0.11 0.09 0.12 0.13 0.17 0.28 0.36 0.37 0.45 0.65 0.77 0.77 0.73 0.70 0.64 0.68 0.78 0.81 0.82 0.80 0.64 0.64 0.70 0.62 0.65 0.74 0.80 0.75 0.70